Location: Gez
(43.0167°N, 0.1000°W)
Time: 03:19:55
(UTC+00:00)

ADEOS - Pass Details

Date: 08 August 2025
Orbit: 789 x 792 km, 98.8° (Epoch: 18 May)

Event Time Altitude Azimuth Distance (km) Brightness Sun altitude
Exits shadow 19:56:22 - 164° (SSE) 3,322 6.4 -8.0°
Rises 19:56:29 0° 164° (SSE) 3,274 6.3 -8.0°
Reaches altitude 10° 19:58:48 10° 165° (SSE) 2,350 5.6 -8.4°
Maximum altitude 20:04:00 90° 262° (W) 798 3.6 -9.2°
Drops below altitude 10° 20:09:15 10° 346° (NNW) 2,367 6.8 -10.0°
Sets 20:11:35 0° 347° (NNW) 3,301 7.6 -10.3°
